When you browse on this site, cookies collect data to enhance your experience and personalize the content and advertising you see.
Visit our Privacy Policy to learn more. By continuing to use the site, you agree to this use of cookies and data.
  • In Latvia
  • List of Countries
  • For 7 days
  • Water Temperature
  • Weather Map
  • Weather Widgets
  • user-avatar
    Login

    Hourly Weather Elbasan

    Today, 4 June, Thursday

    Time Temperature Precipitation Wind Pressure Humidity
    00:00 +14°C° 0 mm 1 mps 731 mmHg 69%
    01:00 +13°C° 0 mm 1 mps 731 mmHg 65%
    02:00 +13°C° 0 mm 1 mps 731 mmHg 64%
    03:00 +13°C° 0 mm 1 mps 731 mmHg 63%
    04:00 +13°C° 0 mm 2 mps 731 mmHg 62%
    05:00 +15°C° 0 mm 1 mps 731 mmHg 59%
    06:00 +18°C° 0 mm 1 mps 731 mmHg 55%
    07:00 +21°C° 0 mm 1 mps 732 mmHg 52%
    08:00 +21°C° 0 mm 2 mps 732 mmHg 50%
    09:00 +23°C° 0 mm 2 mps 732 mmHg 48%
    10:00 +24°C° 0 mm 2 mps 732 mmHg 46%
    11:00 +25°C° 0 mm 3 mps 732 mmHg 45%
    12:00 +25°C° 0 mm 3 mps 732 mmHg 45%
    13:00 +26°C° 0 mm 4 mps 732 mmHg 44%
    14:00 +25°C° 0 mm 4 mps 732 mmHg 46%
    15:00 +25°C° 0 mm 4 mps 732 mmHg 47%
    16:00 +25°C° 0 mm 4 mps 732 mmHg 48%
    17:00 +22°C° 0 mm 3 mps 732 mmHg 54%
    18:00 +20°C° 0 mm 2 mps 732 mmHg 61%
    19:00 +18°C° 0 mm 2 mps 732 mmHg 67%
    20:00 +17°C° 0 mm 2 mps 732 mmHg 68%
    21:00 +16°C° 0 mm 1 mps 732 mmHg 69%
    22:00 +16°C° 0 mm 1 mps 732 mmHg 70%
    23:00 +15°C° 0 mm 1 mps 732 mmHg 68%

    Tomorrow, 5 June, Friday

    Time Temperature Precipitation Wind Pressure Humidity
    00:00 +15°C° 0 mm 2 mps 732 mmHg 66%
    01:00 +15°C° 0 mm 2 mps 732 mmHg 65%
    02:00 +15°C° 0 mm 2 mps 732 mmHg 64%
    03:00 +15°C° 0 mm 2 mps 731 mmHg 62%
    04:00 +15°C° 0 mm 2 mps 731 mmHg 61%
    05:00 +16°C° 0 mm 2 mps 731 mmHg 60%
    06:00 +19°C° 0 mm 1 mps 732 mmHg 59%
    07:00 +20°C° 0 mm 1 mps 732 mmHg 57%
    08:00 +21°C° 0 mm 1 mps 732 mmHg 54%
    09:00 +21°C° 0 mm 2 mps 732 mmHg 50%
    10:00 +23°C° 0 mm 2 mps 732 mmHg 46%
    11:00 +24°C° 0.1 mm 2 mps 731 mmHg 48%
    12:00 +25°C° 0.1 mm 2 mps 731 mmHg 49%
    13:00 +25°C° 0.1 mm 2 mps 730 mmHg 50%
    14:00 +26°C° 0 mm 2 mps 730 mmHg 50%
    15:00 +26°C° 0 mm 2 mps 730 mmHg 51%
    16:00 +26°C° 0 mm 2 mps 729 mmHg 51%
    17:00 +24°C° 0.1 mm 2 mps 729 mmHg 60%
    18:00 +21°C° 0.1 mm 2 mps 729 mmHg 69%
    19:00 +20°C° 0.1 mm 1 mps 729 mmHg 77%
    20:00 +19°C° 0 mm 2 mps 729 mmHg 76%
    21:00 +18°C° 0 mm 2 mps 729 mmHg 75%
    22:00 +18°C° 0 mm 3 mps 729 mmHg 75%
    23:00 +18°C° 0 mm 3 mps 728 mmHg 75%

    Day after tomorrow, 6 June, Saturday

    Time Temperature Precipitation Wind Pressure Humidity
    00:00 +18°C° 0 mm 2 mps 728 mmHg 76%
    01:00 +17°C° 0 mm 2 mps 727 mmHg 77%
    02:00 +17°C° 0 mm 2 mps 727 mmHg 77%
    03:00 +18°C° 0 mm 3 mps 727 mmHg 77%
    04:00 +18°C° 0 mm 3 mps 727 mmHg 77%
    05:00 +19°C° 0 mm 3 mps 727 mmHg 74%
    06:00 +20°C° 0 mm 2 mps 728 mmHg 71%
    07:00 +21°C° 0 mm 2 mps 728 mmHg 67%
    08:00 +23°C° 0 mm 2 mps 728 mmHg 61%
    09:00 +25°C° 0 mm 2 mps 729 mmHg 55%
    10:00 +26°C° 0 mm 2 mps 729 mmHg 49%
    11:00 +26°C° 0.3 mm 2 mps 729 mmHg 51%
    12:00 +26°C° 0.3 mm 2 mps 729 mmHg 53%
    13:00 +25°C° 0.3 mm 2 mps 729 mmHg 55%
    14:00 +25°C° 0.9 mm 2 mps 729 mmHg 58%
    15:00 +24°C° 0.9 mm 2 mps 729 mmHg 62%
    16:00 +24°C° 0.9 mm 2 mps 729 mmHg 66%
    17:00 +22°C° 0.5 mm 1 mps 729 mmHg 72%
    18:00 +21°C° 0.5 mm 1 mps 729 mmHg 78%
    19:00 +18°C° 0.5 mm 0 mps 730 mmHg 84%
    20:00 +17°C° 0.1 mm 0 mps 730 mmHg 85%
    21:00 +17°C° 0.1 mm 0 mps 730 mmHg 85%
    22:00 +17°C° 0.1 mm 0 mps 731 mmHg 86%
    23:00 +16°C° 0 mm 0 mps 731 mmHg 87%

    7 June, Sunday

    Time Temperature Precipitation Wind Pressure Humidity
    00:00 +18°C° 0 mm 1 mps 731 mmHg 89%
    01:00 +18°C° 0 mm 1 mps 731 mmHg 91%
    02:00 +16°C° 0 mm 1 mps 731 mmHg 91%
    03:00 +16°C° 0 mm 1 mps 731 mmHg 91%
    04:00 +16°C° 0 mm 1 mps 730 mmHg 91%
    05:00 +18°C° 0 mm 1 mps 731 mmHg 85%
    06:00 +20°C° 0 mm 1 mps 731 mmHg 79%
    07:00 +21°C° 0 mm 1 mps 732 mmHg 74%
    08:00 +23°C° 0 mm 1 mps 732 mmHg 67%
    09:00 +24°C° 0 mm 1 mps 732 mmHg 61%
    10:00 +25°C° 0 mm 2 mps 732 mmHg 55%
    11:00 +26°C° 0 mm 2 mps 732 mmHg 56%
    12:00 +26°C° 0 mm 3 mps 732 mmHg 57%
    13:00 +26°C° 0 mm 4 mps 732 mmHg 58%
    14:00 +26°C° 0.1 mm 4 mps 732 mmHg 60%
    15:00 +25°C° 0.1 mm 3 mps 732 mmHg 62%
    16:00 +25°C° 0.1 mm 3 mps 732 mmHg 64%
    17:00 +23°C° 0 mm 2 mps 732 mmHg 71%
    18:00 +21°C° 0 mm 2 mps 732 mmHg 77%
    19:00 +20°C° 0 mm 1 mps 732 mmHg 84%
    20:00 +20°C° 0 mm 1 mps 732 mmHg 85%
    21:00 +19°C° 0 mm 1 mps 733 mmHg 86%
    22:00 +18°C° 0 mm 1 mps 733 mmHg 86%
    23:00 +18°C° 0 mm 1 mps 733 mmHg 85%

    8 June, Monday

    Time Temperature Precipitation Wind Pressure Humidity
    00:00 +18°C° 0 mm 1 mps 732 mmHg 83%
    01:00 +18°C° 0 mm 1 mps 732 mmHg 81%
    02:00 +18°C° 0 mm 1 mps 732 mmHg 81%
    03:00 +16°C° 0 mm 1 mps 732 mmHg 80%
    04:00 +16°C° 0 mm 1 mps 732 mmHg 79%
    05:00 +19°C° 0 mm 1 mps 732 mmHg 74%
    06:00 +21°C° 0 mm 1 mps 733 mmHg 69%
    07:00 +21°C° 0 mm 0 mps 733 mmHg 63%
    08:00 +24°C° 0 mm 1 mps 733 mmHg 61%
    09:00 +25°C° 0 mm 1 mps 733 mmHg 58%
    10:00 +26°C° 0 mm 2 mps 733 mmHg 55%
    11:00 +27°C° 0 mm 2 mps 733 mmHg 53%
    12:00 +28°C° 0 mm 2 mps 733 mmHg 51%
    13:00 +28°C° 0 mm 2 mps 732 mmHg 49%
    14:00 +28°C° 0 mm 2 mps 732 mmHg 51%
    15:00 +28°C° 0 mm 2 mps 732 mmHg 52%
    16:00 +28°C° 0 mm 2 mps 732 mmHg 54%
    17:00 +26°C° 0.1 mm 2 mps 732 mmHg 61%
    18:00 +24°C° 0.1 mm 1 mps 732 mmHg 69%
    19:00 +22°C° 0.1 mm 1 mps 732 mmHg 77%
    20:00 +21°C° 0.1 mm 1 mps 732 mmHg 78%
    21:00 +21°C° 0.1 mm 1 mps 732 mmHg 79%
    22:00 +20°C° 0.1 mm 1 mps 732 mmHg 80%
    23:00 +20°C° 0.1 mm 1 mps 732 mmHg 79%

    9 June, Tuesday

    Time Temperature Precipitation Wind Pressure Humidity
    00:00 +20°C° 0.1 mm 1 mps 732 mmHg 78%
    01:00 +20°C° 0.1 mm 1 mps 732 mmHg 76%
    02:00 +20°C° 0 mm 1 mps 732 mmHg 76%
    03:00 +20°C° 0 mm 1 mps 732 mmHg 76%
    04:00 +19°C° 0 mm 1 mps 731 mmHg 76%
    05:00 +21°C° 0 mm 1 mps 732 mmHg 71%
    06:00 +21°C° 0 mm 0 mps 732 mmHg 66%
    07:00 +23°C° 0 mm 0 mps 732 mmHg 60%
    08:00 +26°C° 0 mm 1 mps 732 mmHg 56%
    09:00 +27°C° 0 mm 1 mps 732 mmHg 52%
    10:00 +28°C° 0 mm 2 mps 733 mmHg 48%
    11:00 +28°C° 0 mm 2 mps 732 mmHg 48%
    12:00 +29°C° 0 mm 3 mps 732 mmHg 48%
    13:00 +29°C° 0 mm 4 mps 732 mmHg 48%
    14:00 +28°C° 0.3 mm 3 mps 732 mmHg 52%
    15:00 +27°C° 0.3 mm 3 mps 732 mmHg 55%
    16:00 +27°C° 0.3 mm 3 mps 732 mmHg 59%
    17:00 +25°C° 0.1 mm 2 mps 732 mmHg 64%
    18:00 +23°C° 0.1 mm 1 mps 732 mmHg 70%
    19:00 +21°C° 0.1 mm 1 mps 732 mmHg 75%
    20:00 +21°C° 0 mm 1 mps 732 mmHg 74%
    21:00 +20°C° 0 mm 1 mps 733 mmHg 73%
    22:00 +19°C° 0 mm 1 mps 733 mmHg 72%
    23:00 +19°C° 0 mm 1 mps 733 mmHg 70%
    Show more